sat.trackr.live / text

‹ back to catalog

CARTOSAT-2E

NORAD 42767 · 2017-036C

PAYLOAD ACTIVE UNKNOWN

§ Identity

Operator
Country
IND
Launch date
2017-06-23
Launch site
SRILR
Launch vehicle
Mass (kg)
RCS (m²)

Purposes: earth_obs

External: N2YO · Heavens-Above · Gunter

§ Orbital elements

Epoch: 2026-05-25T04:33:35.410752Z

Period
94.78 min
Inclination
97.4282°
Eccentricity
0.0003655
Mean motion
15.19271185 rev/d
Perigee alt
505.5 km
Apogee alt
510.6 km
Semi-major
6,886.2 km
B*
1.9241e-4
RAAN
205.3690°
Arg perigee
46.1267°
Mean anomaly
314.0269°
Rev number
49,465

§ Raw data

CARTOSAT-2E1 42767U 17036C   26145.18999318  .00003990  00000+0  19241-3 0  99992 42767  97.4282 205.3690 0003655  46.1267 314.0269 15.19271185494653

JSON: /api/v1/satellites/42767 · /tle

For live sub-satellite position, see the globe view (requires WebGL).

§ Visibility from observer

Set your observer location to see the next 7 days of passes ≥ 10°. The values pass through the URL so the page stays shareable.

No JS? Fill the form by hand. The geolocation button needs JavaScript.

§ Radio — SatNOGS DB

ModeDescriptionDownlinkUplink
CW Beacon 2.246 GHz

1 transmitter · refreshed weekly from db.satnogs.org